Location: Wingville
(42.9917°N, 90.4915°W)
Time: 21:10:36
(UTC+00:00)

EO-79 - Pass Details

Date: 27 June 2022
Orbit: 588 x 603 km, 98.0° (Epoch: 11 August)

Event Time Altitude Azimuth Distance (km) Brightness Sun altitude
Rises 06:45:18 0° 29° (NNE) 2,850 ? -23.0°
Reaches altitude 10° 06:48:02 10° 47° (NE) 1,945 ? -23.0°
Maximum altitude 06:51:02 19° 93° (E) 1,453 ? -22.8°
Enters shadow 06:51:52 18° 109° (ESE) 1,495 ? -22.8°
